STARLINK-3651, 51985

Orbit data source: Space-Track

STARLINK-3651, 51985 is a payload satellite owned by SpaceX/Seattle (US) in LEO that was launched on Wed, 09 Mar 2022 UTC via an FALCON 9 launch vehicle from the Air Force Eastern Test Range (AFETR). Payload-class satellites include a variety of spacecraft equipped with specific instruments for various scientific and technological missions. These include communications satellites like Starlink; space stations such as the ISS; scientific satellites like the Hubble; Earth observation satellites from companies like Planet Labs, Umbra, and HawkEye 360; GPS; miniature CubeSats for education and research; and military/defense satellites.

Loading next visibility...
Identifier
51985, 2022-025AF
Orbit
LEO
Country
Flag of USUS
Related business
Manufacturer
SpaceX/Seattle
Mission
Operational Commercial Communications
Bus & Motor
STARLINK, Unknown motor
Mass
297 kg wet, ~275 kg dry
Launch date (UTC)
2022-03-09 (4 years ago)
Launch vehicle
FALCON 9
Launch site
Air Force Eastern Test Range (AFETR)
Object type
Payload
Rocket body
Debris
Shape & HBR
Box + 1 Pan, 10.1 m
Radar Cross Section
13.562 m², Large (>1 m²)

Expand to show TLE details & history
Last TLE update: 16 hours ago

TLE from 16 hours ago
0 STARLINK-3651
1 51985U 22025AF  25346.76451699  .00011091  00000-0  71390-3 0  9991
2 51985  53.2153  69.3520 0001420  94.1933 265.9222 15.08836161207938
Epoch: 2025-12-12T18:20Z
TLE epoch observation values (Epoch: 2025-12-12T18:20:54.267Z)
Latitude
-0°
Longitude
72.42443°
Altitude
540.722 km
Speed
7.593 km/s
True Right ascension
04h 37m 24s
True Declination
0° 00' 00"
Sunlit
Object was in full shadow at epoch
Visualization orbit readout
Latitude
Unknown
Longitude
Unknown
Altitude
Unknown
Speed
Unknown
Apparent Right ascension
Unknown
Apparent Declination
Unknown
Sunlit
N/A
Visualization observer readout
Local Sidereal Time
09:18:48
Azimuth
Unknown
Elevation
Unknown
Doppler factor
Unknown
Orbital elements
Apogee altitude
540.983 km
Perigee altitude
539.018 km
Semi-major axis
6,918.137 km
Eccentricity
0.00014
Inclination
53.2153°
RAAN
69.352°
Arg. of periapsis
94.1933°
True anomaly
265.90597°
Mean anomaly
265.9222°
Eccentric anomaly
265.91408°
Mean motion
3.77189 °/min
Orbital period
95.44 mins
BSTAR
0.0007139
Loading maneuver chart data...
Computing Atmospheric mass density...
Loading historical data...
Loading historical data...
Loading historical data...
Loading historical data...
Loading historical data...
Loading historical data...
Loading historical data...

Documentation

Showing up to 5 results
|